Location: Chanteloup
(48.8560°N, 2.7390°E)
Time: 03:49:29
(UTC+00:00)

Cosmos 1943 Rocket - Pass Details

Date: 24 October 2021
Orbit: 811 x 844 km, 71.0° (Epoch: 05 December)

Event Time Altitude Azimuth Distance (km) Brightness Sun altitude
Rises 18:40:57 0° 334° (NNW) 3,415 5.8 -20.1°
Reaches altitude 10° 18:45:39 10° 9° (N) 2,477 4.6 -20.9°
Maximum altitude 18:47:15 11° 25° (NNE) 2,396 4.4 -21.2°
Enters shadow 18:47:43 11° 30° (NNE) 2,403 4.3 -21.3°
